This is the latest recevied weather packets stored in our database for station/object WB4ZUT. If no packets are shown the sender has not sent any weather packets the latest 10 day(s).
| Time | Temp. | Humidity | Pressure | Rain* | Wind** | Luminosity | Snow |
|---|---|---|---|---|---|---|---|
| 1777903797 | 20° C | 61% | 1010.6 hPa | 0 mm | - | 450 W/m² | - |
| 1777903493 | 20° C | 62% | 1010.3 hPa | 0 mm | - | 376 W/m² | - |
| 1777903190 | 19.44° C | 62% | 1010.6 hPa | 0 mm | - | 378 W/m² | - |
| 1777902886 | 19.44° C | 63% | 1010.7 hPa | 0 mm | - | 332 W/m² | - |
| 1777902583 | 18.89° C | 63% | 1010.4 hPa | 0 mm | - | 321 W/m² | - |
| 1777902280 | 18.89° C | 63% | 1010.7 hPa | 0 mm | - | 299 W/m² | - |
| 1777901978 | 18.89° C | 64% | 1010.6 hPa | 0 mm | - | 292 W/m² | - |
| 1777901675 | 18.89° C | 65% | 1010.8 hPa | 0 mm | - | 267 W/m² | - |
| 1777901373 | 18.33° C | 66% | 1011 hPa | 0 mm | - | 252 W/m² | - |
| 1777901070 | 18.33° C | 66% | 1011 hPa | 0 mm | - | 190 W/m² | - |
| 1777900767 | 18.33° C | 66% | 1010.8 hPa | 0 mm | - | 181 W/m² | - |
| 1777900465 | 17.78° C | 67% | 1010.8 hPa | 0 mm | - | 267 W/m² | - |
| 1777900161 | 17.22° C | 69% | 1011 hPa | 0 mm | - | 270 W/m² | - |
| 1777899858 | 17.22° C | 70% | 1011.1 hPa | 0 mm | - | 241 W/m² | - |
| 1777899555 | 16.67° C | 72% | 1010.9 hPa | 0 mm | - | 220 W/m² | - |
| 1777899252 | 16.11° C | 73% | 1011.1 hPa | 0 mm | - | 169 W/m² | - |
| 1777898950 | 15.56° C | 73% | 1011.3 hPa | 0 mm | - | 134 W/m² | - |
| 1777898647 | 15.56° C | 74% | 1011.1 hPa | 0 mm | - | 92 W/m² | - |
| 1777898344 | 15.56° C | 75% | 1011.2 hPa | 0 mm | - | 70 W/m² | - |
| 1777898041 | 15.56° C | 75% | 1011.1 hPa | 0 mm | - | 49 W/m² | - |
| 1777897737 | 15° C | 75% | 1011.3 hPa | 0 mm | - | 47 W/m² | - |
| 1777897434 | 15° C | 76% | 1011.1 hPa | 0 mm | - | 63 W/m² | - |
| 1777897130 | 15° C | 76% | 1010.9 hPa | 0 mm | - | 60 W/m² | - |
| 1777896826 | 15° C | 75% | 1011.1 hPa | 0 mm | - | 55 W/m² | - |
| 1777896524 | 15° C | 75% | 1011.1 hPa | 0 mm | - | 58 W/m² | - |
* Rain latest hour (hover to see other rain measurements)
** Current wind speed in m/s (hover to see current wind gust speed)